GW2968 Weather Reports


time (UTC)temp
C
wind
direction
speed
KPH
gust
KPH
rain 1hr
cm
rain 24hr
cm
rain mn
cm
humidity
%
barometer
mb
20260506113032 10 335 0.0 4.8 0.03 1.68 0.43 100 1004.6
20260506111528 10 337 0.0 8.0 0.03 1.68 0.43 100 1004.5
20260506110025 10 317 1.6 6.4 0.00 1.65 0.43 100 1004.6
20260506104521 10 321 6.4 11.3 0.00 1.65 0.43 100 1004.5
20260506103025 10 261 1.6 6.4 0.00 1.65 0.43 100 1004.4
20260506101512 10 269 3.2 11.3 0.00 1.65 0.43 100 1004.3
20260506100007 10 332 6.4 11.3 0.00 1.65 0.43 100 1004.2
20260506094504 10 261 0.0 8.0 0.03 1.65 0.43 100 1004.2
20260506093059 10 213 3.2 8.0 0.08 1.65 0.43 100 1004.2
20260506091555 10 257 3.2 8.0 0.13 1.65 0.43 100 1004.1
20260506090053 10 226 0.0 6.4 0.13 1.65 0.43 100 1004.1
20260506084548 10 207 0.0 4.8 0.10 1.65 0.41 100 1004.1
20260506083044 9 234 0.0 4.8 0.05 1.60 0.36 100 1004.0
20260506081540 10 260 1.6 3.2 0.03 1.55 0.30 100 1003.9
20260506073030 10 264 0.0 3.2 0.03 1.55 0.30 100 1003.7
20260506071525 9 264 0.0 3.2 0.00 1.52 0.28 100 1003.7
20260506061513 8 266 0.0 4.8 0.03 1.52 0.28 100 1003.7
20260506044604 8 287 0.0 3.2 0.03 1.45 0.23 100 1003.7
20260506043047 8 287 0.0 3.2 0.00 1.42 0.23 100 1003.6
20260506041542 8 287 0.0 1.6 0.00 1.42 0.23 100 1003.6
20260506040036 8 287 0.0 3.2 0.00 1.42 0.23 100 1003.7
20260506034534 8 287 0.0 1.6 0.00 1.42 0.23 100 1003.7
20260506033027 9 288 0.0 6.4 0.00 1.42 0.23 100 1003.7
20260506031525 9 243 0.0 4.8 0.00 1.42 0.23 100 1003.8
20260506030029 9 242 0.0 4.8 0.00 1.42 0.23 100 1003.8
20260506024534 9 242 1.6 4.8 0.00 1.42 0.23 100 1003.9
20260506023012 9 242 0.0 6.4 0.00 1.42 0.23 100 1004.0
20260506021509 9 239 0.0 4.8 0.00 1.42 0.23 100 1004.1
20260506020001 9 239 0.0 4.8 0.00 1.42 0.23 100 1004.2
20260506014557 9 238 1.6 6.4 0.00 1.42 0.23 100 1004.2
20260506013053 9 238 1.6 4.8 0.03 1.42 0.23 100 1004.3
20260506011548 9 241 1.6 4.8 0.03 1.42 0.23 100 1004.3
20260506010047 9 242 1.6 6.4 0.03 1.42 0.23 100 1004.3
20260506004541 9 242 0.0 4.8 0.05 1.42 0.23 100 1004.3
20260506003039 9 239 3.2 6.4 0.05 1.42 0.20 100 1004.3
20260506001538 9 347 1.6 4.8 0.05 1.42 0.20 100 1004.5
20260506000030 10 355 0.0 1.6 0.05 1.42 0.20 100 1004.5
20260505234530 10 355 0.0 1.6 0.05 1.42 0.18 100 1004.7
20260505233022 10 355 0.0 4.8 0.05 1.40 0.15 100 1004.7
20260505231518 10 355 1.6 4.8 0.08 1.40 0.15 100 1004.7
20260505230032 10 355 1.6 4.8 0.18 1.40 0.15 100 1004.8
20260505224511 10 360 0.0 3.2 0.20 1.37 0.13 100 1004.7
20260505223006 10 360 0.0 4.8 0.41 1.37 0.13 100 1004.8
20260505221502 10 323 0.0 4.8 0.53 1.32 0.08 100 1004.8
20260505220006 10 324 0.0 3.2 0.56 1.27 1.24 100 1004.9
20260505214502 11 324 0.0 0.0 0.53 1.19 1.17 100 1005.0
20260505213102 11 324 0.0 4.8 0.43 1.07 1.02 100 1005.1
20260505211554 11 266 0.0 4.8 0.23 0.84 0.79 100 1005.1
20260505210043 11 266 0.0 1.6 0.18 0.76 0.71 100 1005.3
20260505204539 11 264 0.0 0.0 0.13 0.69 0.64 100 1005.4
20260505203035 11 264 0.0 0.0 0.13 0.64 0.61 100 1005.4
20260505201530 11 264 0.0 0.0 0.10 0.61 0.56 100 1005.5
20260505200029 11 264 0.0 0.0 0.10 0.58 0.53 100 1005.3
20260505194524 11 264 0.0 0.0 0.10 0.56 0.51 100 1005.3
20260505193019 11 264 0.0 0.0 0.10 0.53 0.51 100 1005.4
20260505191515 11 264 0.0 0.0 0.10 0.51 0.48 100 1005.3
20260505190014 11 265 0.0 0.0 0.08 0.48 0.43 100 1005.4
20260505184510 12 265 0.0 0.0 0.08 0.46 0.43 100 1005.4
20260505183005 12 264 0.0 0.0 0.08 0.43 0.41 100 1005.4
20260505181503 12 265 0.0 0.0 0.10 0.43 0.38 100 1005.4
20260505180106 12 265 0.0 0.0 0.13 0.41 0.36 100 1005.6
20260505174609 12 265 0.0 0.0 0.10 0.38 0.33 100 1005.6
20260505173051 12 265 0.0 0.0 0.15 0.36 0.33 100 1005.5
20260505171550 12 264 0.0 1.6 0.15 0.33 0.28 100 1005.6
20260505170045 12 265 0.0 3.2 0.15 0.33 0.25 100 1005.6
20260505164542 13 267 0.0 3.2 0.15 0.30 0.23 100 1005.7
20260505163036 13 268 0.0 1.6 0.15 0.25 0.20 100 1005.8
20260505161532 13 267 0.0 3.2 0.13 0.20 0.15 100 1005.9
20260505153019 14 310 0.0 3.2 0.03 0.18 0.05 100 1005.8
20260505151514 14 309 0.0 0.0 0.00 0.15 0.03 100 1005.9
20260505124536 15 312 3.2 6.4 0.03 0.30 0.03 2 1007.0
20260505123035 15 331 4.8 8.0 0.03 0.30 0.03 8 1007.0
20260505121528 15 278 3.2 8.0 0.03 0.30 0.03 3 1007.2
20260505120026 15 298 3.2 8.0 0.00 0.30 0.00 9 1007.2
20260505114520 15 321 3.2 8.0 0.00 0.30 0.00 5 1007.3